Time,TemperatureF,DewpointF,PressureIn,WindDirection,WindDirectionDegrees,WindSpeedMPH,WindSpeedGustMPH,Humidity,HourlyPrecipIn,Conditions,Clouds,dailyrainin,SoftwareType,DateUTC
2013-01-08 00:12:00,42.6,30.0,30.13,SE,145,8.0,-999.0,61,-99.99,,,0.00,weatherlink.com 1.10,2013-01-08 06:12:00,
2013-01-08 00:27:00,43.1,30.0,30.12,SSE,148,6.0,-999.0,61,-99.99,,,0.00,weatherlink.com 1.10,2013-01-08 06:27:00,
2013-01-08 00:42:00,42.9,30.0,30.12,SSE,155,7.0,-999.0,61,-99.99,,,0.00,weatherlink.com 1.10,2013-01-08 06:42:00,
2013-01-08 00:57:00,43.5,31.0,30.11,SE,144,8.0,-999.0,61,-99.99,,,0.00,weatherlink.com 1.10,2013-01-08 06:57:00,
2013-01-08 01:12:00,44.1,31.0,30.10,SE,144,8.0,-999.0,61,-99.99,,,0.00,weatherlink.com 1.10,2013-01-08 07:12:00,
2013-01-08 01:27:00,44.6,31.0,30.10,SSW,195,11.0,-999.0,60,-99.99,,,0.00,weatherlink.com 1.10,2013-01-08 07:27:00,
2013-01-08 01:42:00,44.1,30.0,30.10,ESE,121,7.0,-999.0,59,-99.99,,,0.00,weatherlink.com 1.10,2013-01-08 07:42:00,
2013-01-08 01:57:00,43.6,30.0,30.10,South,174,6.0,-999.0,60,-99.99,,,0.00,weatherlink.com 1.10,2013-01-08 07:57:00,
2013-01-08 02:12:00,43.5,30.0,30.11,SE,145,7.0,-999.0,60,-99.99,,,0.00,weatherlink.com 1.10,2013-01-08 08:12:00,
2013-01-08 02:27:00,43.1,30.0,30.11,SE,145,6.0,-999.0,61,-99.99,,,0.00,weatherlink.com 1.10,2013-01-08 08:27:00,
2013-01-08 02:42:00,42.8,30.0,30.11,SE,130,6.0,-999.0,62,-99.99,,,0.00,weatherlink.com 1.10,2013-01-08 08:42:00,
2013-01-08 02:57:00,42.8,30.0,30.11,SE,136,6.0,-999.0,62,-99.99,,,0.00,weatherlink.com 1.10,2013-01-08 08:57:00,
2013-01-08 03:12:00,42.6,30.0,30.11,SE,145,6.0,-999.0,62,-99.99,,,0.00,weatherlink.com 1.10,2013-01-08 09:12:00,
2013-01-08 03:27:00,42.8,30.0,30.11,SSE,150,6.0,-999.0,62,-99.99,,,0.00,weatherlink.com 1.10,2013-01-08 09:27:00,
2013-01-08 03:42:00,42.3,30.0,30.12,SE,124,8.0,-999.0,63,-99.99,,,0.00,weatherlink.com 1.10,2013-01-08 09:42:00,
2013-01-08 03:57:00,42.5,31.0,30.11,SE,145,6.0,-999.0,64,-99.99,,,0.00,weatherlink.com 1.10,2013-01-08 09:57:00,
2013-01-08 04:12:00,42.8,31.0,30.12,SSE,148,7.0,-999.0,64,-99.99,,,0.00,weatherlink.com 1.10,2013-01-08 10:12:00,
2013-01-08 04:27:00,42.9,31.0,30.12,SSE,147,6.0,-999.0,64,-99.99,,,0.00,weatherlink.com 1.10,2013-01-08 10:27:00,
2013-01-08 04:42:00,42.8,31.0,30.11,South,179,5.0,-999.0,64,-99.99,,,0.00,weatherlink.com 1.10,2013-01-08 10:42:00,
2013-01-08 04:58:00,42.6,31.0,30.12,SE,137,6.0,-999.0,64,-99.99,,,0.00,weatherlink.com 1.10,2013-01-08 10:58:00,
2013-01-08 05:13:00,42.2,31.0,30.12,SSE,152,5.0,-999.0,64,-99.99,,,0.00,weatherlink.com 1.10,2013-01-08 11:13:00,
2013-01-08 05:28:00,41.9,31.0,30.13,SE,141,6.0,-999.0,65,-99.99,,,0.00,weatherlink.com 1.10,2013-01-08 11:28:00,
2013-01-08 05:43:00,41.9,31.0,30.14,SE,130,7.0,-999.0,65,-99.99,,,0.00,weatherlink.com 1.10,2013-01-08 11:43:00,
2013-01-08 05:58:00,41.8,31.0,30.14,SE,144,7.0,-999.0,66,-99.99,,,0.00,weatherlink.com 1.10,2013-01-08 11:58:00,
2013-01-08 06:13:00,41.6,31.0,30.14,SE,126,7.0,-999.0,66,-99.99,,,0.00,weatherlink.com 1.10,2013-01-08 12:13:00,
2013-01-08 06:28:00,41.3,31.0,30.15,SSE,158,6.0,-999.0,67,-99.99,,,0.00,weatherlink.com 1.10,2013-01-08 12:28:00,
2013-01-08 06:43:00,41.2,31.0,30.16,SSE,164,5.0,-999.0,67,-99.99,,,0.00,weatherlink.com 1.10,2013-01-08 12:43:00,
2013-01-08 06:58:00,41.3,31.0,30.16,SSE,165,8.0,-999.0,68,-99.99,,,0.00,weatherlink.com 1.10,2013-01-08 12:58:00,
2013-01-08 07:13:00,41.3,32.0,30.16,SSE,155,10.0,-999.0,69,-99.99,,,0.00,weatherlink.com 1.10,2013-01-08 13:13:00,
2013-01-08 07:28:00,41.6,32.0,30.16,SSE,154,9.0,-999.0,68,-99.99,,,0.00,weatherlink.com 1.10,2013-01-08 13:28:00,
2013-01-08 07:43:00,41.8,32.0,30.17,SSE,147,7.0,-999.0,69,-99.99,,,0.00,weatherlink.com 1.10,2013-01-08 13:43:00,
2013-01-08 07:58:00,42.5,33.0,30.17,SSE,152,7.0,-999.0,68,-99.99,,,0.00,weatherlink.com 1.10,2013-01-08 13:58:00,
2013-01-08 08:13:00,42.8,33.0,30.17,SSE,162,10.0,-999.0,68,-99.99,,,0.00,weatherlink.com 1.10,2013-01-08 14:13:00,
2013-01-08 08:28:00,43.2,33.0,30.17,ESE,104,8.0,-999.0,68,-99.99,,,0.00,weatherlink.com 1.10,2013-01-08 14:28:00,
2013-01-08 08:43:00,44.3,34.0,30.17,SE,144,8.0,-999.0,68,-99.99,,,0.00,weatherlink.com 1.10,2013-01-08 14:43:00,
2013-01-08 08:58:00,44.6,35.0,30.18,SE,145,7.0,-999.0,68,-99.99,,,0.00,weatherlink.com 1.10,2013-01-08 14:58:00,
2013-01-08 09:13:00,46.0,35.0,30.19,SSE,155,5.0,-999.0,66,-99.99,,,0.00,weatherlink.com 1.10,2013-01-08 15:13:00,
2013-01-08 09:28:00,46.1,35.0,30.20,SSE,158,7.0,-999.0,66,-99.99,,,0.00,weatherlink.com 1.10,2013-01-08 15:28:00,
2013-01-08 09:58:00,46.8,36.0,30.20,SE,130,7.0,-999.0,66,-99.99,,,0.00,weatherlink.com 1.10,2013-01-08 15:58:00,
2013-01-08 10:13:00,47.3,36.0,30.20,SSE,152,6.0,-999.0,66,-99.99,,,0.00,weatherlink.com 1.10,2013-01-08 16:13:00,
2013-01-08 10:28:00,47.7,37.0,30.20,SE,137,3.0,-999.0,66,-99.99,,,0.00,weatherlink.com 1.10,2013-01-08 16:28:00,
2013-01-08 10:43:00,48.8,38.0,30.20,SSE,165,5.0,-999.0,66,-99.99,,,0.00,weatherlink.com 1.10,2013-01-08 16:43:00,
2013-01-08 10:58:00,49.4,38.0,30.19,SSE,147,6.0,-999.0,66,-99.99,,,0.00,weatherlink.com 1.10,2013-01-08 16:58:00,
2013-01-08 11:13:00,50.4,39.0,30.18,South,169,5.0,-999.0,65,-99.99,,,0.00,weatherlink.com 1.10,2013-01-08 17:13:00,
2013-01-08 11:28:00,50.7,39.0,30.17,SE,138,6.0,-999.0,65,-99.99,,,0.00,weatherlink.com 1.10,2013-01-08 17:28:00,
2013-01-08 11:43:00,51.4,40.0,30.17,South,175,8.0,-999.0,65,-99.99,,,0.00,weatherlink.com 1.10,2013-01-08 17:43:00,
2013-01-08 11:58:00,52.3,40.0,30.16,SSE,168,3.0,-999.0,64,-99.99,,,0.00,weatherlink.com 1.10,2013-01-08 17:58:00,
2013-01-08 12:13:00,52.8,41.0,30.16,SE,137,3.0,-999.0,64,-99.99,,,0.00,weatherlink.com 1.10,2013-01-08 18:13:00,
2013-01-08 12:28:00,53.6,42.0,30.15,SE,141,4.0,-999.0,64,-99.99,,,0.00,weatherlink.com 1.10,2013-01-08 18:28:00,
2013-01-08 12:43:00,55.0,42.0,30.14,ESE,117,6.0,-999.0,63,-99.99,,,0.00,weatherlink.com 1.10,2013-01-08 18:43:00,
2013-01-08 12:58:00,56.3,43.0,30.12,East,97,5.0,-999.0,62,-99.99,,,0.00,weatherlink.com 1.10,2013-01-08 18:58:00,
2013-01-08 13:13:00,56.0,43.0,30.11,SSE,158,0.0,-999.0,62,-99.99,,,0.00,weatherlink.com 1.10,2013-01-08 19:13:00,
2013-01-08 13:28:00,57.2,44.0,30.11,SE,138,0.0,-999.0,61,-99.99,,,0.00,weatherlink.com 1.10,2013-01-08 19:28:00,
2013-01-08 13:43:00,57.6,44.0,30.11,SE,131,0.0,-999.0,61,-99.99,,,0.00,weatherlink.com 1.10,2013-01-08 19:43:00,
2013-01-08 13:58:00,58.3,45.0,30.10,ESE,112,3.0,-999.0,61,-99.99,,,0.00,weatherlink.com 1.10,2013-01-08 19:58:00,
2013-01-08 14:13:00,59.0,45.0,30.10,ESE,113,0.0,-999.0,61,-99.99,,,0.00,weatherlink.com 1.10,2013-01-08 20:13:00,
2013-01-08 14:28:00,59.6,45.0,30.10,SE,138,1.0,-999.0,58,-99.99,,,0.00,weatherlink.com 1.10,2013-01-08 20:28:00,
2013-01-08 14:43:00,59.6,45.0,30.11,SSE,168,4.0,-999.0,58,-99.99,,,0.00,weatherlink.com 1.10,2013-01-08 20:43:00,
2013-01-08 14:58:00,59.6,45.0,30.12,South,175,5.0,-999.0,59,-99.99,,,0.00,weatherlink.com 1.10,2013-01-08 20:58:00,
2013-01-08 15:13:00,59.3,45.0,30.11,SE,143,2.0,-999.0,60,-99.99,,,0.00,weatherlink.com 1.10,2013-01-08 21:13:00,
2013-01-08 15:28:00,58.9,45.0,30.11,SE,141,0.0,-999.0,60,-99.99,,,0.00,weatherlink.com 1.10,2013-01-08 21:28:00,
2013-01-08 15:43:00,58.6,45.0,30.11,SE,134,1.0,-999.0,61,-99.99,,,0.00,weatherlink.com 1.10,2013-01-08 21:43:00,
2013-01-08 15:58:00,58.1,45.0,30.09,SE,136,0.0,-999.0,63,-99.99,,,0.00,weatherlink.com 1.10,2013-01-08 21:58:00,
2013-01-08 16:13:00,58.0,45.0,30.09,SSE,157,4.0,-999.0,63,-99.99,,,0.00,weatherlink.com 1.10,2013-01-08 22:13:00,
2013-01-08 16:28:00,57.6,45.0,30.10,SSE,154,5.0,-999.0,64,-99.99,,,0.00,weatherlink.com 1.10,2013-01-08 22:28:00,
2013-01-08 16:43:00,57.3,45.0,30.11,SSE,148,3.0,-999.0,64,-99.99,,,0.00,weatherlink.com 1.10,2013-01-08 22:43:00,
2013-01-08 16:58:00,57.0,45.0,30.11,SE,145,2.0,-999.0,65,-99.99,,,0.00,weatherlink.com 1.10,2013-01-08 22:58:00,
2013-01-08 17:13:00,56.6,45.0,30.11,SE,143,2.0,-999.0,66,-99.99,,,0.00,weatherlink.com 1.10,2013-01-08 23:13:00,
2013-01-08 17:28:00,56.5,46.0,30.11,SE,141,2.0,-999.0,67,-99.99,,,0.00,weatherlink.com 1.10,2013-01-08 23:28:00,
2013-01-08 17:43:00,56.5,46.0,30.11,SSE,164,8.0,-999.0,67,-99.99,,,0.00,weatherlink.com 1.10,2013-01-08 23:43:00,
2013-01-08 17:58:00,56.5,46.0,30.12,SE,141,2.0,-999.0,67,-99.99,,,0.00,weatherlink.com 1.10,2013-01-08 23:58:00,
2013-01-08 18:13:00,56.3,45.0,30.11,SSE,147,2.0,-999.0,67,-99.99,,,0.00,weatherlink.com 1.10,2013-01-09 00:13:00,
2013-01-08 18:28:00,55.9,45.0,30.11,SSE,152,5.0,-999.0,67,-99.99,,,0.00,weatherlink.com 1.10,2013-01-09 00:28:00,
2013-01-08 18:43:00,55.6,45.0,30.11,ESE,123,3.0,-999.0,67,-99.99,,,0.00,weatherlink.com 1.10,2013-01-09 00:43:00,
2013-01-08 18:58:00,55.6,45.0,30.11,ESE,121,5.0,-999.0,67,-99.99,,,0.00,weatherlink.com 1.10,2013-01-09 00:58:00,
2013-01-08 19:13:00,55.6,45.0,30.11,SE,145,6.0,-999.0,67,-99.99,,,0.00,weatherlink.com 1.10,2013-01-09 01:13:00,
2013-01-08 19:28:00,55.3,44.0,30.11,SE,133,2.0,-999.0,67,-99.99,,,0.00,weatherlink.com 1.10,2013-01-09 01:28:00,
2013-01-08 19:43:00,55.1,45.0,30.11,SE,140,6.0,-999.0,68,-99.99,,,0.00,weatherlink.com 1.10,2013-01-09 01:43:00,
2013-01-08 19:58:00,54.8,44.0,30.11,SSE,152,6.0,-999.0,68,-99.99,,,0.00,weatherlink.com 1.10,2013-01-09 01:58:00,
2013-01-08 20:13:00,54.5,44.0,30.11,SE,126,6.0,-999.0,69,-99.99,,,0.00,weatherlink.com 1.10,2013-01-09 02:13:00,
2013-01-08 20:28:00,54.1,45.0,30.11,SE,137,5.0,-999.0,70,-99.99,,,0.00,weatherlink.com 1.10,2013-01-09 02:28:00,
2013-01-08 20:43:00,54.1,45.0,30.12,SSE,152,7.0,-999.0,71,-99.99,,,0.00,weatherlink.com 1.10,2013-01-09 02:43:00,
2013-01-08 20:58:00,54.1,45.0,30.11,SSE,154,7.0,-999.0,72,-99.99,,,0.00,weatherlink.com 1.10,2013-01-09 02:58:00,
2013-01-08 21:13:00,54.4,46.0,30.11,SSE,148,8.0,-999.0,72,-99.99,,,0.00,weatherlink.com 1.10,2013-01-09 03:13:00,
2013-01-08 21:29:00,54.1,45.0,30.11,SE,137,10.0,-999.0,72,-99.99,,,0.00,weatherlink.com 1.10,2013-01-09 03:29:00,
2013-01-08 21:44:00,54.1,45.0,30.11,SSE,165,6.0,-999.0,72,-99.99,,,0.00,weatherlink.com 1.10,2013-01-09 03:44:00,
2013-01-08 21:59:00,54.2,45.0,30.11,South,175,6.0,-999.0,72,-99.99,,,0.00,weatherlink.com 1.10,2013-01-09 03:59:00,
2013-01-08 22:14:00,53.8,45.0,30.11,SSE,151,5.0,-999.0,73,-99.99,,,0.00,weatherlink.com 1.10,2013-01-09 04:14:00,
2013-01-08 22:29:00,53.6,45.0,30.11,SSE,151,8.0,-999.0,73,-99.99,,,0.00,weatherlink.com 1.10,2013-01-09 04:29:00,
2013-01-08 22:44:00,53.1,45.0,30.11,SE,145,7.0,-999.0,74,-99.99,,,0.00,weatherlink.com 1.10,2013-01-09 04:44:00,
2013-01-08 22:59:00,52.8,45.0,30.11,SSE,151,4.0,-999.0,75,-99.99,,,0.00,weatherlink.com 1.10,2013-01-09 04:59:00,
2013-01-08 23:14:00,52.6,45.0,30.12,SE,131,6.0,-999.0,75,-99.99,,,0.00,weatherlink.com 1.10,2013-01-09 05:14:00,
2013-01-08 23:29:00,52.5,45.0,30.12,SSE,155,5.0,-999.0,77,-99.99,,,0.00,weatherlink.com 1.10,2013-01-09 05:29:00,
2013-01-08 23:44:00,52.5,45.0,30.11,SSE,148,7.0,-999.0,77,-99.99,,,0.00,weatherlink.com 1.10,2013-01-09 05:44:00,
2013-01-08 23:59:00,52.3,46.0,30.12,SSE,154,8.0,-999.0,78,-99.99,,,0.00,weatherlink.com 1.10,2013-01-09 05:59:00,